AirNav  
 
 509 users online  

01NY Vassar Hospital Heliport
Poughkeepsie, New York, USA

GOING TO POUGHKEEPSIE?


FAA INFORMATION EFFECTIVE 12 OCTOBER 2017

Location

FAA Identifier: 01NY
Lat/Long: 41-41-32.6700N / 073-56-12.5400W
41-41.544500N / 073-56.209000W
41.6924083 / -73.9368167
(estimated)
Elevation: 100 ft. / 30 m (estimated)
Variation: 13W (1985)
From city: 3 miles SW of POUGHKEEPSIE, NY
Time zone: UTC -4 (UTC -5 during Standard Time)
Zip code: 12601

Heliport Operations

Heliport use: Private use, MEDICAL USE.
Activation date: 08/1975
Control tower: no
ARTCC: NEW YORK CENTER
FSS: NEW YORK FLIGHT SERVICE STATION
Attendance: UNATNDD
Wind indicator: yes
Segmented circle: no
Lights: SS-SR

Heliport Communications

WX ASOS at POU (5 nm SE): 126.75 (845-462-0648)
WX ASOS at MGJ (18 nm SW): 119.275 (845-457-1486)

Nearby radio navigation aids

VOR radial/distance  VOR name  Freq  Var
IGNr299/5.4KINGSTON VOR/DME117.6012W
PWLr265/15.8PAWLING VOR/DME114.3012W
CMKr339/29.5CARMEL VOR/DME116.6012W
HUOr071/33.9HUGUENOT VOR/DME116.1011W

 
NDB name  Hdg/Dist  Freq  Var  ID
STANWYCK038/11.026112WSKU ... -.- ..-
PHILMONT209/35.027213WPFH .--. ..-. ....
GREAT BARRINGTON233/37.839514WGBR --. -... .-.

Heliport Services

Runway Information

Helipad H1

Dimensions: 100 x 75 ft. / 30 x 23 m
Surface: asphalt
Runway edge lights: PERIMETER LGTS.
Latitude: 41-41.544500N
Longitude: 073-56.209000W
Traffic pattern: leftleft

Heliport Ownership and Management from official FAA records

Ownership: Privately-owned
Owner: VASSAR BROS. HOSPITAL
45 READ PLACE
POUGHKEEPSIE, NY 12601
Phone 914-454-8500
Manager: STEPHEN FAJFER
45 READ PLACE
POUGHKEEPSIE, NY 12601
Phone (845) 629-3506

Instrument Procedures

There are no published instrument procedures at 01NY.

Some nearby airports with instrument procedures:

KPOU - Hudson Valley Regional Airport (5 nm SE)
44N - Sky Acres Airport (9 nm E)
KSWF - Stewart International Airport (14 nm SW)
20N - Kingston-Ulster Airport (18 nm N)
KMGJ - Orange County Airport (18 nm SW)
N89 - Joseph Y Resnick Airport (20 nm W)
 
Loc | Ops | Rwys | IFR | FBO | Links
Com | Nav | Svcs | Stats | Notes


 
Area around 01NY (Vassar Hospital Heliport)
 
Road maps at: MapQuest Bing Google
 
Aerial photo
No photo
 
Sectional chart

 
Airport distance calculator
Flying to Vassar Hospital Heliport? Find the distance to fly.

From to 01NY

Sunrise and sunset
Times for 22-Oct-2017
 Local
(UTC-4)
 Zulu
(UTC)
Morning civil twilight06:4910:49
Sunrise07:1711:17
Sunset18:0422:04
Evening civil twilight18:3222:32

Current date and time
Zulu (UTC)  22-Oct-2017 11:27:27
Local (UTC-4)  22-Oct-2017 07:27:27
 
METAR
KPOU 
4nm SE 
221053Z 00000KT 10SM CLR 04/03 A3038 RMK AO2 SLP285 T00440033
KSWF 
13nm SW 
221045Z 00000KT 10SM SCT080 08/06 A3039
KMGJ 
18nm SW 
SuperAWOS
221054Z AUTO 00000KT 10SM CLR 06/05 A3038 RMK AO2 SLP289 T00560050
TAF
KPOU 
4nm SE 
220528Z 2206/2306 00000KT P6SM SCT250 FM221400 17004KT P6SM FEW250
KSWF 
13nm SW 
220538Z 2206/2312 VRB02KT P6SM BKN250 FM221600 19006KT P6SM BKN250 FM222100 16006KT P6SM BKN250 FM230000 VRB03KT P6SM BKN250 FM230900 VRB02KT 6SM BR SCT010 BKN250 AMD NOT SKED
NOTAMs
Click for the latest NOTAMs
NOTAMs are issued by the DoD/FAA and will open in a separate window not controlled by AirNav.

 

 
 

Would you like to see your business listed on this page?

 If your business provides an interesting product or service to pilots, flight crews, aircraft, or users of the Vassar Hospital Heliport, you should consider listing it here.  To start the listing process, click on the button below
 
Add a business
 

Other Pages about Vassar Hospital Heliport

Update a link
 
Copyright © AirNav, LLC. All rights reserved. Privacy Policy  Contact